User: anonymous   Login
Location: Eymir
(36.7333°N, 29.7833°E)
Time: 16:07:53
(UTC+00:00)
Language:

Cosmos 1500 Rocket - Orbit

View from above orbital plane
View from above orbital plane
View from above satellite
View from above satellite

Ground track
Ground track

The orbit is defined by the following mean orbital elements,

1 14373U          26076.18451271 +.00000000 +00000-0 +45578-4 0 00004
2 14373  82.5392 135.5259 0020818 111.7247 248.6189 14.86241261    04
Epoch (UTC): 17 March 2026 04:25:41
Eccentricity: 0.0020818
inclination: 82.5392°
perigee height: 595 km
apogee height: 624 km
right ascension of ascending node: 135.5259°
argument of perigee: 111.7247°
revolutions per day: 14.86241261
mean anomaly at epoch: 248.6189°

The dashed part of the orbit path shows where the satellite is in the earth's shadow,  

DLR